Location: McCall
(45.0000°N, 116.0000°W)
Time: 15:41:45
(UTC-06:00)

Saudisat 1A - Visible Passes

Search period start: 02 June 2015 00:00
Search period end: 12 June 2015 00:00
Orbit: 578 x 620 km, 64.6° (Epoch: 02 June)

Date Brightness Start Highest point End Pass type
(mag) Time Alt. Az. Time Alt. Az. Time Alt. Az.
02 Jun 11.4 02:53:07 10° N 02:55:09 13° NNE 02:57:19 10° ENE visible
02 Jun 8.9 04:31:15 10° NNW 04:35:41 56° NE 04:40:07 10° SE visible
02 Jun 11.1 21:58:41 10° W 22:02:02 21° NW 22:05:22 10° NNE visible
03 Jun 11.0 03:03:30 10° N 03:06:34 18° NE 03:09:44 10° E visible
03 Jun 8.0 04:42:11 10° NW 04:46:43 86° SW 04:51:13 10° SSE visible
03 Jun 11.3 22:10:53 10° WNW 22:13:25 14° NNW 22:15:51 10° N visible
04 Jun 10.3 03:14:06 10° NNW 03:17:53 26° NE 03:21:42 10° E visible
04 Jun 8.3 04:53:17 10° NW 04:57:38 49° WSW 05:01:58 10° SSE visible
04 Jun 11.6 22:23:53 10° NW 22:24:52 11° NNW 22:25:46 10° NNW visible
05 Jun 11.4 01:47:27 10° NNE 01:48:20 11° NNE 01:49:20 10° NE visible
05 Jun 9.4 03:24:50 10° NNW 03:29:06 40° NE 03:33:21 10° ESE visible
05 Jun 9.0 05:04:37 10° WNW 05:08:30 28° WSW 05:12:17 10° S visible
06 Jun 11.0 01:57:21 10° N 01:59:47 14° NNE 02:02:21 10° ENE visible
06 Jun 8.4 03:35:42 10° NNW 03:40:11 67° NE 03:44:40 10° SE visible
06 Jun 9.6 05:16:27 10° WNW 05:19:16 16° WSW 05:21:54 10° SSW visible
07 Jun 10.6 02:07:49 10° NNW 02:11:10 20° NE 02:14:35 10° E visible
07 Jun 8.0 03:46:41 10° NW 03:51:11 72° WSW 03:55:38 10° SSE visible
08 Jun 9.9 02:18:28 10° NNW 02:22:27 30° NE 02:26:27 10° ESE visible
08 Jun 8.5 03:57:50 10° NW 04:02:04 40° WSW 04:04:30 22° S visible
09 Jun 11.0 00:51:22 10° N 00:52:58 12° NNE 00:54:41 10° NE visible
09 Jun 9.0 02:29:14 10° NNW 02:33:36 47° NE 02:37:04 15° ESE visible
09 Jun 9.2 04:09:18 10° WNW 04:12:53 23° WSW 04:13:42 22° SW visible
10 Jun 10.7 01:01:36 10° N 01:04:24 16° NNE 01:07:18 10° ENE visible
10 Jun 8.1 02:40:08 10° NW 02:44:39 81° NE 02:46:36 34° SE visible
10 Jun 10.0 04:21:29 10° W 04:23:15 13° WSW 04:23:15 13° WSW visible
11 Jun 10.2 01:12:08 10° NNW 01:15:44 23° NE 01:19:23 10° E visible
11 Jun 8.1 02:51:10 10° NW 02:55:36 58° WSW 02:56:22 50° SSW visible
